Regional Weather Roundup
Issued by NWS Burlington, VT

Current Version | Previous Version | Text Only | Print | Product List | Glossary Off
Versions: 1 2 3 4 5 6 7 8 9 10 11 12 13 14 15 16 17 18 19 20 21 22 23 24 25 26 27 28 29 30 31 32 33 34 35 36 37 38 39 40 41 42 43 44 45 46 47 48 49 50

000
ASUS41 KBTV 280310
RWRBTV
VERMONT REGIONAL WEATHER ROUNDUP
NATIONAL WEATHER SERVICE BURLINGTON VT
1100 PM EDT FRI MAR 27 2015

NOTE: "FAIR" INDICATES FEW OR NO CLOUDS BELOW 12,000 FEET WITH NO
SIGNIFICANT WEATHER AND/OR OBSTRUCTIONS TO VISIBILITY.

* THESE REPORTS ARE NOT UNDER NWS QUALITY CONTROL AND/OR DO NOT
  REPORT WEATHER SUCH AS PRECIPITATION AND FOG.

VTZ001>019-280400-
_____VERMONT_____


CITY           SKY/WX    TMP DP  RH WIND       PRES   REMARKS
BURLINGTON     CLOUDY    29  22  75 N16       29.87R WCI  17
MONTPELIER     CLOUDY    30  26  85 N3        29.83R
MORRISVILLE    CLOUDY    31  22  69 N5        29.83S
ST. JOHNSBURY*   N/A     32  26  78 MISG      29.79S
LYNDONVILLE*   CLOUDY    30  23  74 NW8       29.81R
MIDDLEBURY*    CLOUDY    31  31 100 N7        29.82S
RUTLAND*       CLOUDY    30  28  93 NW6       29.80R
SPRINGFIELD    CLOUDY    35  28  75 E5        29.79R
HIGHGATE*      FLURRIES  28  24  88 CALM      29.88S
NEWPORT*       MOCLDY    27  21  77 NW7       29.82S
BENNINGTON     CLOUDY    33  29  85 VRB7      29.79R
SUTTON*          N/A     27 N/A N/A MISG        N/A

_____LAKE CHAMPLAIN_____


CITY           SKY/WX    TMP DP  RH WIND       PRES   REMARKS

$$

NYZ007-026>031-035-052-083-280400-
_____NORTHERN NEW YORK_____


CITY           SKY/WX    TMP DP  RH WIND       PRES   REMARKS
PLATTSBURGH    LGT SNOW  29  24  82 N9        29.88R
SARANAC LAKE     N/A     20  17  88 NW5       29.81R
MASSENA        FLURRIES  22  18  85 W3        29.96R
OGDENSBURG*    CLOUDY    25  18  74 NW6       29.95S
POTSDAM*       LGT SNOW  21  19  93 CALM      29.94R
WATERTOWN      FLURRIES  22  16  78 N3        29.97R
FT DRUM        FLURRIES  20  18  93 N5        29.93R
ALBANY         FLURRIES  35  23  61 NW8       29.85R
GLENS FALLS    LGT SNOW  32  28  85 N6        29.84R FOG

$$
NHZ002-005-011-280400-
_____NEW HAMPSHIRE_____


CITY           SKY/WX    TMP DP  RH WIND       PRES   REMARKS
LEBANON        CLOUDY    35  30  82 N5        29.79R
KEENE          CLOUDY    32  28  86 CALM      29.77R
MT WASHINGTON  SNOW      12  12 100 NW9         N/A  VSB 1/16
PLYMOUTH       CLOUDY    36  32  87 W6        29.76R
WHITEFIELD     CLOUDY    32  26  78 CALM      29.78R

$$

_____REGIONAL QUEBEC LOCATIONS_____


CITY           SKY/WX    TMP DP  RH WIND       PRES   REMARKS
MONTREAL       FLURRIES  27  25  93 W5        29.91R
QUEBEC CITY    CLEAR     25   9  50 N12       29.86R WCI  14
SHERBROOKE     CLEAR     25  16  68 VRB2      29.82R

_____REGIONAL ONTARIO LOCATIONS_____


CITY           SKY/WX    TMP DP  RH WIND       PRES   REMARKS
OTTAWA         PTCLDY    19   5  53 NW17      29.97R WCI   4

______KEY______
VSB  - VISIBILITY IN MILES
WCI  - WIND CHILL INDEX
HX   - HEAT INDEX
$$
NNNN



USA.gov is the U.S. government's official web portal to all federal, state and local government web resources and services.